Wind_Speed
29 25 27 33 34 34 33 33 30 26 25 23 23 23 25 25 25 28 29 33 33 30 32 33 32 29 30 36 33 34 33 38 44 41 50 38 42 44 33 26 41 40 34 19 29
32 28 29 32 33 35 33 32 30 27 26 23 23 22 24 24 26 29 32 29 25 24 25 24 23 27 28 33 33 38 35 43 46 51 41 33 37 41 41 27 40 43 41 33 26
31 29 31 28 30 34 32 29 28 27 26 23 24 22 22 24 29 26 18 23 24 24 22 22 21 25 28 30 36 35 40 39 42 44 27 33 33 39 41 34 35 45 43 35 22
29 33 33 31 35 32 32 28 25 26 25 24 23 22 21 25 21 24 26 26 23 20 21 15 20 27 27 30 32 33 41 32 46 31 36 31 35 40 42 35 33 30 34 32 24
30 32 32 32 32 35 31 28 22 23 23 23 23 20 23 23 24 21 24 21 20 18 16 17 20 24 26 26 32 31 36 41 32 30 53 29 39 42 47 38 34 30 30 27 26
30 34 33 34 33 32 28 29 23 20 21 21 22 20 23 22 17 20 18 15 18 15 17 21 21 24 23 26 21 29 27 34 32 30 48 32 41 43 43 37 37 30 30 30 27
30 34 34 35 36 34 27 24 23 17 17 19 21 21 20 16 15 13 15 15 16 20 16 19 19 23 23 18 17 20 15 22 30 25 34 34 42 40 37 34 34 33 30 28 26
30 33 32 39 35 36 30 22 22 15 15 18 19 18 16 13 10 9 12 13 16 10 3 12 17 23 28 14 15 21 11 22 21 37 21 32 33 38 37 29 29 32 33 29 30
29 30 31 32 36 36 30 19 21 16 12 16 17 16 9 9 8 8 10 10 8 7 1 9 13 23 21 14 12 23 8 13 20 41 23 22 26 35 33 31 27 30 32 32 32
34 32 32 33 33 37 37 21 18 16 11 13 14 11 10 6 6 6 9 9 3 5 3 6 11 22 15 18 12 18 10 10 12 25 25 22 18 28 31 32 28 25 28 29 29
37 32 33 33 30 37 38 28 16 16 12 12 14 11 7 5 4 4 8 7 2 1 1 5 13 5 12 19 6 17 16 9 12 12 15 18 12 25 32 33 31 26 23 23 25
36 38 32 31 27 33 38 27 13 13 13 13 11 10 7 5 2 3 6 6 3 3 4 3 2 6 19 16 9 16 14 13 4 10 4 11 22 5 29 31 31 29 27 24 22
32 37 35 32 30 29 39 15 12 9 11 13 11 9 7 4 0 1 4 5 2 5 4 6 5 4 10 12 10 10 15 14 12 3 8 9 3 9 10 30 32 32 27 26 24
26 32 38 30 29 32 35 11 7 8 7 6 8 7 5 4 1 1 2 3 2 5 3 4 2 7 6 11 11 13 9 10 10 7 2 4 5 5 10 9 35 29 32 28 26
29 25 32 37 29 28 31 6 4 5 3 3 7 4 2 2 1 2 0 2 2 3 4 4 6 5 3 10 13 11 14 11 12 9 5 5 2 3 12 14 40 32 31 29 27
41 32 28 36 30 29 22 2 5 4 5 5 5 2 1 4 2 2 3 2 5 5 8 8 11 6 2 7 11 14 15 16 13 10 1 7 7 3 2 8 16 30 26 25 28
47 39 34 36 28 24 19 9 6 8 5 5 5 4 3 3 4 5 5 8 4 6 5 5 6 10 5 5 7 12 16 5 4 3 2 9 6 2 9 1 14 24 17 16 19
37 35 36 37 26 27 10 16 9 6 8 8 8 8 4 5 7 4 8 8 5 6 7 3 6 5 9 6 5 12 4 2 4 3 2 9 3 4 4 5 9 18 13 13 18
22 20 27 35 23 25 19 17 4 9 10 11 13 9 6 5 5 6 10 10 9 4 2 3 4 4 11 8 10 13 5 6 7 9 4 3 1 1 7 9 12 10 8 10 13
17 10 20 28 26 21 24 18 9 10 8 11 8 7 7 10 9 7 6 8 5 6 4 5 4 4 13 13 10 11 7 3 5 2 4 3 2 4 7 7 9 8 7 9 8
18 8 19 23 22 28 28 25 13 10 10 14 9 10 9 11 9 8 4 12 6 3 8 7 2 8 8 8 15 13 5 3 6 4 3 3 1 2 7 9 6 4 4 4 4
27 17 16 23 29 34 31 23 11 16 15 15 10 9 12 12 8 4 7 8 8 7 5 4 7 6 9 10 11 11 6 3 3 3 4 2 3 1 9 9 7 5 3 4 7
26 20 15 22 34 32 25 22 15 19 18 17 12 11 12 12 5 6 9 10 11 7 3 4 4 6 2 1 6 6 7 6 3 5 4 3 2 8 11 9 6 7 9 7 5
33 23 27 36 33 29 23 12 17 20 20 16 15 13 14 14 5 8 8 9 12 8 3 2 5 2 5 3 6 8 10 8 5 3 4 1 6 9 9 8 9 9 6 6 5
39 31 38 43 40 27 16 11 21 23 20 17 14 14 15 14 8 7 7 9 12 8 4 1 3 5 7 6 5 5 9 12 10 9 4 7 7 9 9 10 10 10 10 10 11
36 30 33 11 29 26 19 19 21 22 26 23 14 15 15 14 9 6 7 8 8 13 10 5 4 6 4 2 2 2 3 8 11 14 14 13 12 10 10 13 14 15 17 18 20
32 25 26 26 11 23 27 21 20 20 23 20 13 16 14 10 7 8 7 8 6 11 11 8 2 2 1 1 2 4 8 9 9 9 9 13 12 14 17 19 19 21 23 25 27
Wind_Direction
327 319 342 346 345 348 347 339 331 325 314 305 299 296 293 294 294 292 293 290 288 279 273 272 264 255 241 236 231 224 224 223 223 231 232 233 212 217 224 226 218 227 235 234 226
319 329 320 328 339 339 343 343 336 325 316 309 301 297 298 299 296 297 294 289 287 283 278 271 260 246 239 236 227 220 222 223 221 227 226 236 222 215 224 220 217 217 224 231 224
307 313 318 318 322 333 334 344 337 327 320 313 302 301 304 301 304 303 299 295 290 285 279 262 257 239 232 229 223 223 218 223 222 229 229 237 230 221 221 221 218 217 220 230 233
300 310 311 308 308 325 330 337 339 330 323 314 305 307 305 311 312 300 301 302 299 296 283 258 246 228 228 229 221 226 222 216 219 226 230 224 226 221 223 222 220 221 218 225 222
293 305 303 309 307 311 327 332 335 331 324 314 308 308 311 315 309 303 305 312 313 298 293 234 240 222 220 226 222 225 221 219 223 226 222 217 215 214 214 222 221 219 211 215 228
288 298 304 306 308 311 327 329 329 333 326 314 307 313 316 319 312 312 312 322 330 300 296 237 223 216 223 237 227 220 225 222 228 235 230 226 205 205 214 219 219 215 216 215 223
292 293 295 297 311 307 322 329 323 336 327 312 306 316 318 319 318 317 323 350 337 312 282 229 212 205 221 237 226 205 222 220 230 234 221 200 200 201 207 211 210 211 208 211 202
281 285 290 301 304 305 316 326 322 331 323 310 304 314 320 325 324 316 334 350 343 2 78 174 204 206 212 182 217 198 219 217 236 208 257 187 183 198 200 200 199 207 206 196 199
271 284 285 290 305 302 305 322 321 319 316 307 300 311 316 329 327 332 343 356 6 37 56 174 207 214 226 190 187 190 205 202 233 207 272 168 172 191 191 191 189 196 201 201 195
260 273 282 283 296 307 299 314 313 316 310 298 295 312 317 323 323 328 354 359 19 63 200 228 216 221 249 185 184 181 194 183 207 223 261 194 147 177 178 181 174 181 192 197 203
259 258 267 277 288 294 298 319 310 318 304 285 288 299 289 303 317 349 350 351 25 247 1 263 240 224 197 188 175 194 197 165 148 235 241 180 216 176 177 170 170 169 164 177 195
263 253 265 278 277 293 301 309 305 308 291 280 278 286 276 309 318 350 346 350 9 158 71 34 299 321 154 183 178 192 179 154 182 226 28 212 248 223 200 181 173 172 171 170 171
276 258 256 272 268 285 289 306 298 302 276 270 255 273 281 284 227 6 327 5 19 140 137 49 302 140 152 166 164 173 202 196 192 302 323 1 302 287 249 190 182 182 184 186 184
275 271 255 270 265 281 288 304 290 292 266 258 228 258 272 256 238 174 341 349 355 139 98 339 65 120 122 149 167 162 168 167 187 169 39 332 310 332 226 236 199 196 192 200 202
273 277 270 257 267 280 290 297 255 259 321 182 213 252 265 265 163 222 25 359 117 109 167 59 113 103 178 157 167 161 167 174 164 164 153 183 279 283 230 216 200 201 207 212 219
273 273 277 257 261 274 279 135 206 235 253 193 199 210 234 355 289 215 200 106 114 95 93 108 116 108 105 130 151 156 160 162 157 152 68 184 194 322 232 239 198 203 204 217 226
270 264 266 246 260 269 262 178 213 228 188 186 195 155 106 37 119 178 156 138 123 126 120 94 86 121 157 163 118 160 136 113 125 160 144 192 203 222 325 217 180 174 195 205 206
272 263 257 238 255 252 204 183 228 226 172 161 162 152 127 55 85 124 146 141 148 119 121 69 118 137 158 174 183 159 66 69 124 145 125 151 232 31 91 83 152 217 234 214 208
271 234 234 222 248 229 194 201 252 223 203 171 162 163 149 125 133 129 133 144 130 111 102 99 58 81 146 169 161 165 80 66 104 92 124 172 25 309 83 107 133 153 159 180 186
203 198 225 226 233 195 193 206 224 214 181 170 154 178 167 156 151 136 147 179 157 116 96 109 92 67 108 154 130 139 133 32 49 88 69 7 348 72 145 121 135 144 144 161 177
248 226 209 221 215 186 200 216 230 207 182 168 162 172 169 164 179 157 162 149 155 126 135 128 99 101 83 98 135 137 137 92 86 62 129 136 116 135 157 158 156 157 160 183 217
240 232 221 211 183 201 208 213 218 197 184 171 171 162 159 157 160 139 155 158 160 127 106 107 121 116 107 131 152 169 161 112 63 127 93 103 24 275 162 150 137 142 181 176 137
216 212 225 222 193 209 213 215 206 188 188 175 171 167 170 162 162 162 165 167 163 157 130 92 117 81 36 181 190 188 184 187 120 67 49 72 58 115 141 145 149 133 135 142 156
202 198 190 192 212 219 214 218 196 188 186 176 176 177 175 178 177 172 166 176 179 166 142 98 142 101 153 132 179 196 204 209 209 163 192 163 148 152 159 167 167 182 204 217 232
185 194 198 202 209 213 201 208 191 181 181 180 184 189 191 178 179 175 174 175 196 199 198 164 98 115 118 112 141 176 204 207 215 228 225 207 189 200 205 216 228 237 249 254 264
190 195 199 195 217 208 197 190 194 183 183 187 192 187 191 204 190 193 182 187 188 205 204 204 151 147 132 140 129 153 183 212 232 235 239 247 244 239 242 244 248 250 252 258 275
185 190 200 216 209 200 208 186 188 176 185 190 188 190 193 191 193 166 169 176 201 208 206 199 148 199 263 255 298 274 235 238 244 252 255 254 263 258 253 253 255 260 267 276 285
Height
3105 3102 3099 3096 3091 3086 3082 3077 3073 3069 3066 3063 3059 3055 3054 3051 3050 3047 3046 3043 3041 3039 3037 3037 3037 3041 3041 3042 3048 3053 3053 3052 3060 3066 3068 3077 3082 3087 3090 3093 3094 3097 3099 3105 3111
3103 3099 3095 3092 3087 3083 3077 3072 3068 3064 3062 3059 3055 3051 3050 3047 3044 3042 3038 3035 3032 3031 3031 3030 3031 3032 3032 3035 3041 3042 3044 3046 3056 3062 3064 3073 3078 3083 3086 3089 3090 3092 3100 3101 3107
3097 3094 3090 3087 3083 3079 3073 3066 3063 3060 3057 3055 3052 3047 3045 3043 3039 3034 3032 3029 3028 3026 3024 3024 3025 3025 3027 3030 3034 3036 3037 3045 3050 3055 3063 3070 3073 3078 3080 3084 3086 3089 3096 3097 3099
3093 3090 3086 3082 3079 3074 3070 3063 3057 3055 3053 3050 3047 3044 3040 3038 3038 3030 3027 3024 3021 3020 3018 3017 3018 3019 3023 3025 3030 3032 3035 3040 3046 3051 3058 3064 3070 3073 3075 3079 3082 3087 3094 3096 3101
3089 3085 3082 3078 3074 3070 3066 3060 3053 3049 3049 3046 3043 3040 3036 3034 3032 3026 3024 3020 3015 3013 3012 3012 3013 3016 3019 3021 3026 3027 3031 3037 3042 3049 3046 3060 3064 3070 3072 3075 3080 3085 3090 3097 3102
3084 3081 3078 3073 3070 3064 3060 3057 3050 3045 3044 3042 3039 3036 3032 3030 3026 3023 3021 3016 3011 3008 3006 3006 3009 3014 3017 3018 3019 3025 3029 3034 3038 3044 3047 3053 3059 3064 3067 3072 3077 3083 3087 3093 3098
3077 3075 3073 3069 3065 3061 3055 3051 3048 3040 3040 3038 3036 3033 3029 3028 3023 3020 3017 3012 3008 3003 3000 3001 3008 3012 3015 3017 3018 3024 3028 3032 3035 3039 3045 3044 3052 3056 3061 3067 3074 3080 3085 3089 3093
3070 3067 3066 3065 3060 3056 3051 3047 3044 3037 3035 3035 3033 3030 3027 3024 3021 3018 3014 3011 3007 3003 3000 3002 3007 3010 3010 3014 3019 3022 3027 3029 3030 3038 3033 3042 3044 3051 3057 3064 3069 3076 3082 3087 3093
3061 3060 3059 3058 3055 3051 3046 3042 3039 3035 3031 3031 3030 3028 3025 3023 3021 3017 3015 3012 3009 3007 3006 3007 3008 3009 3010 3014 3017 3021 3024 3028 3030 3032 3028 3030 3040 3047 3053 3058 3065 3073 3076 3082 3086
3052 3052 3052 3051 3050 3046 3042 3036 3035 3032 3028 3028 3027 3029 3024 3022 3020 3017 3015 3014 3009 3009 3010 3011 3010 3011 3011 3014 3015 3019 3023 3027 3027 3038 3034 3032 3038 3046 3050 3055 3062 3069 3073 3078 3083
3044 3045 3044 3044 3044 3042 3039 3032 3034 3030 3026 3026 3025 3023 3022 3021 3019 3017 3015 3015 3011 3010 3012 3012 3011 3009 3011 3014 3017 3021 3024 3026 3031 3035 3035 3034 3042 3043 3048 3054 3060 3068 3072 3076 3081
3035 3036 3036 3036 3037 3035 3033 3028 3028 3028 3025 3022 3021 3021 3020 3019 3017 3016 3017 3016 3013 3011 3012 3013 3011 3008 3011 3015 3018 3021 3025 3030 3034 3036 3037 3033 3033 3043 3049 3053 3059 3067 3072 3076 3082
3028 3027 3030 3030 3031 3031 3028 3024 3025 3024 3023 3019 3019 3019 3019 3019 3016 3016 3017 3015 3014 3013 3013 3013 3013 3012 3015 3018 3020 3021 3024 3026 3032 3036 3039 3040 3045 3043 3048 3054 3057 3062 3071 3075 3080
3020 3021 3023 3023 3027 3025 3024 3021 3022 3022 3019 3018 3017 3017 3017 3016 3017 3016 3016 3017 3015 3015 3015 3015 3015 3015 3016 3017 3021 3022 3024 3029 3033 3038 3040 3042 3044 3046 3051 3050 3055 3062 3066 3073 3078
3012 3015 3016 3017 3018 3019 3019 3017 3020 3022 3022 3015 3016 3016 3016 3018 3017 3016 3016 3016 3015 3015 3018 3018 3017 3018 3019 3021 3022 3024 3026 3031 3032 3038 3040 3045 3047 3046 3047 3049 3052 3059 3065 3071 3076
3002 3008 3009 3010 3014 3014 3013 3014 3020 3022 3013 3012 3014 3015 3016 3015 3015 3016 3016 3017 3016 3017 3018 3018 3020 3021 3022 3023 3024 3028 3030 3033 3035 3040 3046 3046 3049 3045 3047 3046 3049 3057 3065 3070 3072
2990 2997 3001 3005 3009 3009 3010 3013 3020 3014 3011 3011 3012 3014 3016 3015 3014 3015 3016 3017 3018 3021 3020 3021 3022 3023 3024 3025 3026 3030 3031 3034 3041 3046 3047 3045 3048 3047 3046 3047 3047 3057 3064 3067 3070
2981 2984 2994 2998 3002 3005 3006 3013 3013 3006 3006 3007 3011 3014 3016 3015 3016 3016 3017 3019 3020 3020 3021 3023 3027 3026 3026 3028 3029 3031 3033 3035 3040 3043 3046 3048 3047 3048 3047 3046 3051 3057 3059 3062 3067
2976 2980 2985 2992 2997 3000 3003 3007 3004 3003 3004 3005 3011 3013 3016 3016 3017 3018 3018 3021 3021 3021 3024 3023 3025 3026 3027 3028 3031 3033 3034 3036 3039 3042 3046 3048 3049 3049 3050 3053 3055 3058 3060 3064 3069
2971 2975 2981 2989 2992 2995 3000 3000 3002 3003 3003 3005 3009 3012 3015 3016 3018 3019 3019 3022 3022 3023 3024 3025 3026 3026 3028 3031 3033 3033 3037 3038 3036 3041 3044 3048 3050 3052 3053 3056 3058 3059 3061 3065 3067
2967 2970 2976 2985 2990 2993 2993 2996 3000 3002 3004 3006 3008 3011 3014 3016 3017 3019 3020 3022 3023 3024 3024 3026 3028 3030 3031 3032 3035 3038 3039 3041 3042 3044 3047 3054 3054 3053 3055 3056 3057 3059 3061 3062 3064
2963 2969 2973 2982 2987 2987 2988 2994 2999 3000 3002 3004 3008 3011 3014 3016 3018 3020 3021 3022 3025 3026 3027 3027 3028 3030 3033 3034 3036 3039 3041 3042 3043 3049 3048 3049 3051 3049 3052 3054 3057 3059 3061 3064 3066
2960 2968 2973 2978 2981 2982 2986 2992 2997 2998 3001 3004 3008 3012 3015 3017 3020 3020 3022 3023 3026 3027 3029 3029 3030 3033 3035 3038 3038 3038 3041 3044 3045 3045 3047 3048 3052 3051 3053 3056 3058 3060 3062 3065 3066
2959 2967 2971 2975 2978 2982 2986 2991 2994 2997 3000 3004 3008 3011 3015 3017 3019 3020 3022 3024 3026 3028 3030 3032 3033 3034 3036 3036 3038 3039 3041 3044 3046 3049 3050 3052 3054 3055 3055 3057 3059 3062 3063 3064 3065
2954 2961 2963 2968 2973 2980 2986 2989 2992 2994 2998 3003 3007 3011 3015 3017 3019 3021 3022 3025 3028 3029 3031 3032 3034 3035 3036 3037 3038 3039 3041 3043 3046 3049 3052 3054 3054 3054 3055 3057 3059 3060 3060 3061 3062
2951 2957 2964 2967 2974 2980 2983 2987 2990 2992 2996 3001 3006 3011 3015 3018 3020 3022 3024 3026 3027 3029 3031 3034 3035 3036 3037 3038 3039 3039 3040 3041 3044 3046 3048 3048 3049 3052 3053 3055 3057 3057 3058 3058 3059
2952 2959 2967 2970 2972 2977 2980 2986 2989 2993 2998 3003 3007 3010 3014 3019 3021 3022 3024 3026 3027 3028 3031 3034 3035 3037 3038 3038 3040 3041 3040 3041 3042 3043 3044 3045 3048 3050 3051 3053 3054 3054 3054 3054 3054